Coventry, United Kingdom

8:18 AM BST on July 26, 2017 (GMT +0100)
Coventry

Weather History for EGBE - August, 2014

Change the Weather History Date:

Friday, August 8, 2014

  Actual Average Record
Temperature  
Mean Temperature 68 °F -  
Max Temperature 75 °F 67 °F 86 °F (1997)
Min Temperature 60 °F 52 °F 50 °F (1996)
Cooling Degree Days 2    
Growing Degree Days 18 (Base 50)    
Moisture  
Dew Point 58 °F    
Average Humidity 67    
Maximum Humidity 94    
Minimum Humidity 47    
Precipitation  
Precipitation 0.00 in - - ()
Sea Level Pressure  
Sea Level Pressure 29.71 in    
Wind  
Wind Speed 7 mph ()    
Max Wind Speed 12 mph    
Max Gust Speed -    
Visibility 6.1 miles    
Events Rain    
Averages and records for this station are not official NWS values.
T = Trace of Precipitation, MM = Missing Value Source: Averaged Metar Reports

Daily Weather History Graph

Daily Weather History Graph

Search for Another Location

Airport or City:

Trip Planner

Search our weather history database for the weather conditions in past years. The results will help you decide how hot, cold, wet, or windy it might be!

Date:

Astronomy

Aug. 08, 2014 Rise Set
Actual Time 5:37 AM BST 8:44 PM BST
Civil Twilight 4:56 AM BST 9:24 PM BST
Nautical Twilight 4:03 AM BST 10:17 PM BST
Astronomical Twilight 2:53 AM BST 11:26 PM BST
Moon 6:46 PM BST (8/8) 2:47 AM BST (8/8)
Length of Visible Light 16h 27m
Length of Day
15h 07m
Waxing Gibbous, 92% of the Moon is Illuminated
Aug 8
Waxing Gibbous
Aug 10
Full
Aug 17
Last Quarter
Aug 25
New
Sep 2
First Quarter

Hourly Weather History & Observations

Time (BST) Temp. Dew Point Humidity Pressure Visibility Wind Dir Wind Speed Gust Speed Precip Events Conditions
7:20 AM 62.6 °F 60.8 °F 94% 29.86 in 5.6 mi ESE 6.9 mph - N/A   Mostly Cloudy
7:50 AM 64.4 °F 60.8 °F 88% 29.86 in 5.6 mi ESE 6.9 mph - N/A   Mostly Cloudy
8:20 AM 64.4 °F 60.8 °F 88% 29.86 in 5.6 mi SE 6.9 mph - N/A   Mostly Cloudy
8:50 AM 66.2 °F 60.8 °F 83% 29.83 in 6.2 mi ESE 8.1 mph - N/A   Scattered Clouds
9:20 AM 68.0 °F 60.8 °F 78% 29.83 in 6.2 mi SE 8.1 mph - N/A   Partly Cloudy
9:50 AM 69.8 °F 60.8 °F 73% 29.83 in 6.2 mi SSE 5.8 mph - N/A   Scattered Clouds
10:20 AM 69.8 °F 60.8 °F 73% 29.83 in 6.2 mi SE 8.1 mph - N/A   Scattered Clouds
10:50 AM 71.6 °F 60.8 °F 69% 29.80 in 6.2 mi SSE 6.9 mph - N/A   Scattered Clouds
11:20 AM 71.6 °F 60.8 °F 69% 29.80 in 6.2 mi SE 8.1 mph - N/A   Scattered Clouds
11:50 AM 73.4 °F 59.0 °F 61% 29.80 in 6.2 mi South 8.1 mph - N/A   Scattered Clouds
12:20 PM 73.4 °F 59.0 °F 61% 29.77 in 6.2 mi South 9.2 mph - N/A   Scattered Clouds
12:50 PM 73.4 °F 59.0 °F 61% 29.77 in 6.2 mi South 8.1 mph - N/A   Scattered Clouds
1:20 PM 75.2 °F 59.0 °F 57% 29.74 in 6.2 mi South 8.1 mph - N/A   Scattered Clouds
1:50 PM 75.2 °F 57.2 °F 53% 29.74 in 6.2 mi SSE 6.9 mph - N/A   Scattered Clouds
2:20 PM 75.2 °F 57.2 °F 53% 29.71 in 6.2 mi South 8.1 mph - N/A   Scattered Clouds
2:50 PM 75.2 °F 57.2 °F 53% 29.71 in 6.2 mi South 9.2 mph - N/A   Scattered Clouds
3:20 PM 75.2 °F 57.2 °F 53% 29.71 in 6.2 mi South 9.2 mph - N/A   Scattered Clouds
3:50 PM 75.2 °F 53.6 °F 47% 29.68 in 6.2 mi South 8.1 mph - N/A   Scattered Clouds
4:20 PM 75.2 °F 53.6 °F 47% 29.68 in 6.2 mi SW 8.1 mph - N/A   Scattered Clouds
4:50 PM 73.4 °F 55.4 °F 53% 29.65 in 6.2 mi SW 5.8 mph - N/A   Scattered Clouds
5:20 PM 73.4 °F 55.4 °F 53% 29.65 in 6.2 mi WSW 9.2 mph - N/A   Scattered Clouds
5:50 PM 71.6 °F 57.2 °F 60% 29.65 in 6.2 mi WSW 9.2 mph - N/A Rain Light Rain
6:20 PM 69.8 °F 57.2 °F 64% 29.65 in 6.2 mi West 8.1 mph - N/A   Scattered Clouds
6:50 PM 69.8 °F 57.2 °F 64% 29.65 in 6.2 mi West 6.9 mph - N/A   Scattered Clouds
7:20 PM 69.8 °F 57.2 °F 64% 29.62 in 6.2 mi West 6.9 mph - N/A   Partly Cloudy
7:50 PM 69.8 °F 55.4 °F 60% 29.62 in 6.2 mi West 5.8 mph - N/A   Partly Cloudy
8:20 PM 69.8 °F 55.4 °F 60% 29.62 in 6.2 mi West 5.8 mph - N/A   Partly Cloudy
8:50 PM 68.0 °F 55.4 °F 64% 29.62 in 6.2 mi West 5.8 mph - N/A   Partly Cloudy
9:20 PM 68.0 °F 55.4 °F 64% 29.62 in 6.2 mi WNW 9.2 mph - N/A   Partly Cloudy
9:50 PM 66.2 °F 55.4 °F 68% 29.62 in 6.2 mi NW 11.5 mph - N/A Rain Light Rain
10:20 PM 64.4 °F 57.2 °F 77% 29.62 in 6.2 mi NW 10.4 mph - N/A Rain Light Rain
10:50 PM 62.6 °F 57.2 °F 82% 29.62 in 5.6 mi NW 11.5 mph - N/A Rain Light Rain
11:20 PM 60.8 °F 57.2 °F 88% 29.62 in 6.2 mi NW 10.4 mph - N/A Rain Light Rain
11:50 PM 60.8 °F 57.2 °F 88% 29.62 in 6.2 mi NW 6.9 mph - N/A Rain Light Rain